Location: Blairvadach
(56.2780°N, 6.9720°W)
Time: 01:56:41
(UTC+00:00)

Envisat - Pass Details

Date: 20 November 2019
Orbit: 764 x 766 km, 98.1° (Epoch: 08 December)

Event Time Altitude Azimuth Distance (km) Brightness Sun altitude
Rises 20:02:22 0° 221° (SW) 3,227 6.6 -31.3°
Reaches altitude 10° 20:05:50 10° 246° (WSW) 2,307 6.1 -31.8°
Maximum altitude 20:08:27 14° 277° (W) 2,042 6.0 -32.2°
Drops below altitude 10° 20:11:05 10° 309° (NW) 2,315 6.2 -32.5°
Sets 20:14:37 0° 334° (NNW) 3,247 6.7 -33.0°
